Showing default

HULIANWANG DIGUI-55, 65112

Orbit data source: Space-Track

HULIANWANG DIGUI-55, 65112 is a payload satellite owned by Zhongguo Xingwang (CN) in LEO that was launched on Mon, 04 Aug 2025 UTC via a CHANG ZHENG 12 launch vehicle from the Wenchang Satellite Launch Center (WSC). Payload-class satellites include a variety of spacecraft equipped with specific instruments for various scientific and technological missions. These include communications satellites like Starlink; space stations such as the ISS; scientific satellites like the Hubble; Earth observation satellites from companies like Planet Labs, Umbra, and HawkEye 360; GPS; miniature CubeSats for education and research; and military/defense satellites.

Loading next visibility...
Identifier
65112, 2025-168G
Orbit
LEO
Country
Flag of CNCN / PRC
Related business
Manufacturer
YINNT
Mission
Operational Civil Communications
Bus & Motor
XINGWANG Y, Unknown motor
Mass
~800 kg wet, ~800 kg dry
Launch date (UTC)
2025-08-04 (11 months ago)
Launch vehicle
CHANG ZHENG 12
Launch site
Wenchang Satellite Launch Center (WSC)
Object type
Payload
Rocket body
Debris
Shape & HBR
Box + 2 Pan, 2.1 m
Radar Cross Section
5.935 m², Large (>1 m²)

Expand to show TLE details & history
Last TLE update: 10 hours ago

TLE from 10 hours ago
0 HULIANWANG DIGUI-55
1 65112U 25168G   26171.42736394 -.00000090  00000-0  73985-4 0  9998
2 65112  50.0008 313.8821 0012113 104.7788 255.4427 13.29320675 43126
Epoch: 2026-06-20T10:15Z
TLE epoch observation values (Epoch: 2026-06-20T10:15:24.244Z)
Latitude
-0.00001°
Longitude
-108.61107°
Altitude
1,152.135 km
Speed
7.277 km/s
True Right ascension
20h 55m 31s
True Declination
0° 00' 00"
Sunlit
Object was in full shadow at epoch
Visualization orbit readout
Latitude
Unknown
Longitude
Unknown
Altitude
Unknown
Speed
Unknown
Apparent Right ascension
Unknown
Apparent Declination
Unknown
Sunlit
N/A
Visualization observer readout
Local Sidereal Time
07:19:33
Azimuth
Unknown
Elevation
Unknown
Doppler factor
Unknown
Orbital elements
Apogee altitude
1,159.151 km
Perigee altitude
1,140.913 km
Semi-major axis
7,528.169 km
Eccentricity
0.00121
Inclination
50.0008°
RAAN
313.8821°
Arg. of periapsis
104.7788°
True anomaly
255.3084°
Mean anomaly
255.4427°
Eccentric anomaly
255.37555°
Mean motion
3.32284 °/min
Orbital period
108.34 mins
BSTAR
0.000073985
Loading maneuver chart data...
Computing Atmospheric mass density...
Loading historical data...
Loading historical data...
Loading historical data...
Loading historical data...
Loading historical data...
Loading historical data...
Loading historical data...

Documentation

Showing up to 5 results
|